Location: Cortos
(40.7190°N, 4.5893°W)
Time: 09:46:29
(UTC+00:00)

USA 267 - Pass Details

Date: 05 July 2020
Orbit: 1102 x 1106 km, 123.0° (Epoch: 03 August)

Event Time Altitude Azimuth Distance (km) Brightness Sun altitude
Exits shadow 23:21:18 46° 130° (SE) 1,446 3.5 -25.0°
Maximum altitude 23:23:30 88° 45° (NE) 1,107 3.2 -25.1°
Drops below altitude 10° 23:30:05 10° 313° (NW) 2,965 6.2 -25.4°
Sets 23:32:34 0° 314° (NW) 3,926 7.0 -25.5°
